SCP
0 0 0 0 0 0 0 0 0 0 0 0 1 1 1 1 1 1 2 2 1 1 1 2 2 1 1 1 2 3 3 2 1 1 1 1 1 1 1 1 1 1 1 1
0 0 0 0 0 0 0 0 0 0 1 1 1 1 1 1 1 1 1 1 1 1 2 2 2 1 1 2 2 3 2 2 1 1 1 1 1 1 1 1 1 1 1 1
0 0 0 0 0 0 0 0 0 1 1 1 1 1 1 2 2 1 1 1 2 2 2 2 2 1 1 2 2 2 2 2 1 1 1 1 1 1 1 1 2 2 2 2
0 0 0 0 0 0 0 0 0 1 1 1 1 1 1 2 2 1 1 1 2 2 3 2 2 1 1 1 2 2 2 2 2 2 2 2 2 2 2 2 2 2 2 2
0 0 0 0 0 0 0 0 1 1 1 1 1 1 1 1 2 2 1 1 2 2 3 3 2 2 2 2 2 2 2 2 2 2 2 2 2 2 2 2 2 2 2 2
0 0 0 0 0 0 0 0 1 1 0 0 1 1 1 1 2 2 1 1 2 2 3 4 3 3 3 2 2 3 3 2 2 3 3 3 2 2 2 2 2 3 3 3
0 0 0 0 0 0 0 0 0 0 0 0 1 1 1 1 2 2 1 1 2 3 4 4 4 4 3 3 3 4 5 5 4 4 4 4 3 2 2 3 3 3 3 3
0 0 0 0 0 0 0 0 0 0 0 0 1 1 1 2 2 1 1 1 2 3 4 4 4 3 3 3 4 5 6 6 6 5 4 4 4 3 3 3 3 3 3 3
0 0 0 0 0 0 0 0 0 0 0 1 1 1 2 2 1 1 1 2 2 3 4 4 4 3 3 3 4 4 5 6 5 5 5 5 5 5 4 4 4 4 4 4
0 0 0 0 0 0 0 0 0 0 0 1 1 1 2 2 2 1 2 2 2 3 3 4 3 3 3 3 3 4 5 5 6 6 7 7 6 6 5 4 4 4 5 5
0 0 0 0 0 0 0 0 0 0 0 0 1 1 2 2 2 2 2 2 2 3 3 3 3 3 3 3 4 6 7 7 7 7 7 7 7 6 4 4 4 4 5 5
0 0 0 0 0 0 0 0 0 0 0 0 1 2 2 1 2 2 2 2 2 3 3 3 3 3 4 5 6 7 7 7 8 8 9 8 8 6 5 4 4 4 4 4
0 1 1 0 0 0 0 0 0 0 1 1 1 2 2 1 1 2 2 2 3 3 3 3 3 3 4 5 6 7 7 7 8 9 10 10 9 7 5 4 3 3 3 3
0 1 1 1 0 0 0 0 0 0 1 1 1 2 2 2 2 2 2 3 3 3 3 3 3 3 3 3 4 6 7 7 8 9 10 10 9 8 6 4 3 3 3 3
0 1 1 1 0 0 0 0 0 1 1 1 1 2 2 1 1 2 2 3 3 3 3 3 3 2 2 3 4 6 7 8 8 9 9 9 9 8 6 3 2 3 3 2
1 1 0 0 0 0 0 0 1 1 1 1 1 2 1 1 1 2 2 3 4 3 3 4 3 3 3 3 4 6 8 10 10 10 9 8 8 7 4 3 2 2 3 2
1 1 1 0 0 0 0 1 1 1 1 1 2 2 1 1 2 2 2 3 4 4 4 4 4 4 3 3 3 6 9 11 11 10 9 7 6 4 3 3 2 2 3 3
1 1 1 0 0 0 1 1 1 1 1 2 2 2 2 1 1 2 2 2 3 4 4 4 4 4 3 2 3 7 10 11 11 10 8 6 4 3 3 2 2 2 3 3
1 1 1 0 0 0 1 1 1 1 1 2 2 2 2 2 2 2 2 2 3 3 4 4 4 3 3 3 4 7 9 9 9 8 7 6 4 2 2 2 2 2 3 3
1 1 1 0 0 0 1 1 1 1 1 2 2 2 2 2 2 3 3 3 2 2 3 4 3 2 3 3 4 5 6 7 7 7 7 5 4 3 2 3 2 3 3 4
1 1 1 0 0 0 1 1 1 1 1 2 2 2 2 2 2 3 3 3 2 2 3 3 3 2 3 4 4 4 4 5 5 6 6 5 4 4 4 4 4 4 4 5
1 1 1 1 1 1 1 1 1 2 2 2 2 2 2 2 3 3 3 2 2 2 3 3 4 4 4 4 4 4 3 3 4 4 4 4 4 4 5 5 4 3 4 4
2 2 2 2 1 2 2 2 2 2 2 2 2 2 2 3 3 3 2 2 2 3 5 5 6 7 7 6 5 5 4 3 3 2 2 2 2 2 3 3 2 2 2 2
2 2 2 2 2 2 3 3 3 3 2 2 2 3 3 4 3 3 3 2 3 5 6 7 8 9 9 8 7 6 5 4 3 2 2 1 1 1 1 1 1 1 1 1
2 2 2 2 2 2 2 3 4 3 3 2 3 5 7 6 4 3 3 3 4 6 7 8 8 9 8 7 6 5 4 3 2 2 1 1 1 1 1 1 0 0 0 0
2 2 2 2 2 2 2 3 4 3 3 2 3 7 10 8 5 3 3 4 5 6 7 8 8 7 6 5 5 4 3 3 2 2 1 1 1 1 1 0 0 0 0 0
Wind_Speed
8 9 9 7 7 8 8 8 7 4 1 5 6 5 2 4 6 6 7 8 8 8 8 8 8 7 7 6 6 6 6 6 4 3 3 3 2 2 2 2 1 2 2 1
9 11 9 8 7 8 9 10 8 4 2 5 5 6 3 4 5 5 6 7 8 9 9 9 8 8 7 7 7 7 7 6 6 4 3 2 2 2 2 1 1 2 2 2
13 6 5 8 9 9 10 9 8 6 4 6 7 7 5 5 5 5 6 7 7 8 9 9 9 8 8 8 8 7 7 7 6 5 4 3 2 2 2 2 1 2 2 2
11 10 8 9 9 10 9 6 8 7 8 5 6 6 4 5 6 6 6 7 7 8 8 9 9 9 8 8 8 7 7 7 6 6 5 5 3 2 2 2 1 2 2 2
9 8 10 11 9 9 7 5 7 9 10 9 7 8 3 5 6 6 6 6 7 8 8 9 9 9 8 8 7 7 6 6 5 5 5 4 3 2 2 1 1 2 2 2
11 8 9 9 8 8 6 7 8 9 10 10 7 8 5 3 4 4 5 6 7 7 8 8 7 7 7 7 7 7 7 6 6 6 5 4 3 3 2 2 1 2 2 2
12 11 9 8 9 8 10 9 7 8 8 7 5 7 4 1 1 2 4 5 6 7 8 8 8 8 7 7 7 7 7 7 7 6 6 5 5 4 4 3 2 3 2 2
11 10 10 10 11 9 10 11 9 9 8 6 6 7 1 0 1 2 3 4 5 7 7 8 8 8 8 8 7 8 7 7 7 6 6 5 5 4 3 3 3 3 2 2
8 7 6 7 8 11 10 10 9 11 11 10 6 5 4 3 4 4 4 5 5 6 7 7 7 7 7 8 8 7 7 7 6 6 5 5 4 4 3 3 3 2 2 2
8 8 6 6 7 9 10 9 8 9 9 10 9 8 4 5 5 4 4 5 5 6 7 7 7 7 7 7 7 7 7 6 6 5 4 4 4 4 3 3 3 3 3 2
10 10 7 8 9 8 9 9 8 8 9 11 9 4 2 1 2 4 4 4 5 6 6 6 6 6 7 7 8 8 7 7 6 5 4 4 3 3 3 3 3 3 3 3
8 9 8 9 5 5 8 9 10 9 8 10 10 4 3 2 2 3 3 4 5 5 5 5 6 6 6 6 6 6 6 5 5 5 4 4 3 3 3 3 2 2 2 2
4 8 9 9 8 8 8 9 10 11 9 9 10 3 4 2 2 3 3 4 5 5 5 5 5 5 5 5 5 5 5 4 4 4 4 4 3 3 3 2 2 2 2 2
6 9 10 10 5 4 8 9 10 11 9 9 10 6 2 2 2 2 3 4 5 5 5 5 5 5 4 4 4 4 4 4 3 3 3 3 3 3 2 2 2 2 2 2
6 8 8 8 7 7 8 9 10 11 11 12 9 8 5 2 2 2 3 4 5 6 5 5 5 5 4 4 4 4 3 3 3 3 3 2 2 2 2 2 2 2 2 2
5 7 7 9 8 8 9 9 10 10 11 11 10 8 3 1 2 3 4 4 5 5 5 5 5 5 4 4 3 3 3 3 3 3 3 2 2 2 2 2 1 1 2 2
5 6 8 9 7 8 11 10 10 9 10 10 10 6 2 2 3 4 4 5 5 5 4 4 4 4 3 3 3 3 3 3 3 3 3 2 2 2 2 2 2 2 2 2
6 7 7 8 7 12 6 2 5 8 8 7 7 4 2 2 2 3 4 4 4 4 4 4 4 3 3 3 3 3 3 3 3 3 2 2 3 2 2 2 2 2 2 1
7 7 7 8 10 10 5 3 4 6 6 3 3 3 1 1 4 5 3 3 3 4 4 3 3 3 3 3 3 3 3 3 3 2 2 2 2 2 2 2 2 2 2 2
6 8 9 8 11 10 3 1 1 5 6 1 1 2 3 4 6 3 3 3 3 4 3 3 3 3 3 3 3 3 3 3 2 1 1 2 2 3 2 2 2 2 2 2
7 7 9 10 10 6 3 1 3 7 1 3 2 2 3 3 3 3 3 4 4 4 4 3 3 3 3 3 3 3 2 2 1 1 1 1 1 2 2 2 1 2 2 1
7 7 7 8 10 4 5 1 1 4 4 3 2 2 2 1 0 2 3 4 4 4 4 4 3 4 3 3 3 3 2 2 1 1 1 1 1 1 1 1 1 1 1 2
6 5 4 4 3 4 2 2 4 4 4 4 3 3 2 2 2 2 3 4 4 5 4 4 4 4 4 3 3 3 2 2 2 2 2 1 1 0 1 1 2 2 2 2
3 2 5 5 2 1 1 1 3 3 4 4 4 3 2 2 2 3 4 4 4 4 5 4 4 4 4 3 2 2 2 2 2 2 2 1 1 1 1 1 1 1 1 2
4 4 5 6 4 4 2 2 3 4 3 3 2 2 2 2 3 3 3 4 3 3 3 3 4 4 3 3 3 2 2 2 1 1 1 1 1 1 0 0 1 1 1 2
5 6 7 5 3 4 3 3 4 3 3 3 3 2 2 3 3 4 4 4 4 4 3 3 3 3 3 2 2 2 2 2 1 1 1 1 1 1 1 1 0 3 1 2
Wind_Direction
203 230 236 245 252 282 297 292 291 298 291 261 261 268 235 178 197 194 187 186 189 191 182 180 179 178 175 177 178 176 179 173 179 184 197 191 197 208 203 211 199 221 240 216
213 232 248 260 254 255 265 274 277 269 251 266 268 267 240 193 201 203 196 194 193 191 183 181 181 181 182 182 181 179 182 178 188 188 196 197 214 218 200 229 192 234 233 233
233 246 248 245 242 246 256 266 278 282 258 242 258 243 210 192 194 197 201 200 197 193 186 184 186 187 186 184 186 185 183 181 191 188 185 183 192 214 195 201 199 219 220 216
239 244 243 244 244 251 257 265 269 264 257 248 249 270 202 193 198 198 197 196 196 189 186 184 183 184 185 183 182 185 182 182 182 186 193 197 202 207 208 216 180 189 203 220
231 231 237 242 246 249 266 278 265 259 256 261 235 262 226 186 217 203 191 191 191 186 184 183 181 176 179 180 180 178 175 179 184 193 193 201 212 217 209 214 180 219 197 218
247 238 245 248 248 242 239 239 240 242 249 250 247 260 259 217 229 209 193 186 182 179 177 174 170 167 176 179 178 174 170 176 184 188 190 194 206 220 227 238 228 231 214 214
229 224 220 229 230 213 228 243 245 236 232 245 223 247 270 306 253 224 206 190 178 174 175 171 168 170 176 182 181 174 170 175 181 183 187 191 203 208 212 228 232 250 247 233
231 225 207 214 234 236 231 248 259 272 270 260 214 240 255 26 208 205 201 189 177 173 173 172 171 171 173 174 176 175 172 175 178 181 187 191 198 209 214 221 239 243 263 272
246 236 198 211 230 239 233 238 259 270 273 272 255 242 218 196 198 199 190 183 175 174 173 173 173 172 172 173 177 177 170 170 174 180 182 186 193 210 213 217 229 243 257 257
261 256 225 205 219 226 252 256 246 253 268 267 258 247 239 201 199 194 187 183 172 170 172 172 173 173 173 171 169 170 172 172 173 178 188 178 192 208 215 225 231 243 251 253
250 248 229 211 222 226 215 227 248 263 267 271 270 268 41 200 194 199 188 178 174 165 160 163 162 164 167 167 168 170 171 170 173 179 182 185 192 204 211 214 225 236 245 242
238 250 246 229 221 260 248 245 246 251 254 264 275 286 74 127 170 184 171 157 149 147 148 150 149 152 157 161 162 165 169 171 173 174 178 184 188 196 208 208 221 239 248 245
228 246 242 222 200 205 229 235 242 253 258 260 268 264 114 144 166 149 148 147 147 150 147 141 138 144 151 155 158 166 172 173 171 174 180 180 184 195 212 210 219 239 243 243
255 247 254 261 270 247 235 234 234 244 253 260 260 270 227 213 207 170 149 149 143 143 146 142 141 147 152 159 164 174 176 171 165 175 185 180 186 193 212 215 220 232 241 236
252 249 249 266 272 264 258 253 237 242 255 268 275 275 275 250 206 180 164 156 146 144 147 144 147 144 153 154 158 171 176 171 173 183 192 187 196 187 192 198 214 235 249 243
262 261 253 248 253 251 255 255 251 247 254 257 262 268 289 257 179 175 174 167 160 154 151 145 145 146 153 154 159 167 173 172 181 194 200 192 199 191 187 191 196 227 240 243
243 248 255 252 241 250 246 249 251 250 256 261 265 270 266 223 209 198 179 181 173 158 157 156 153 155 155 162 167 175 171 175 184 198 209 201 205 205 203 208 203 228 235 226
247 250 254 257 243 249 259 267 263 259 261 266 267 269 275 274 249 192 184 193 183 165 160 158 161 165 165 160 167 181 174 177 182 192 201 199 204 205 200 205 225 243 240 230
231 240 253 252 248 249 229 227 247 254 255 272 259 253 244 206 222 197 184 188 184 167 162 162 169 164 157 164 165 172 171 172 179 185 187 180 200 207 200 202 225 236 233 240
198 227 249 248 256 259 268 63 289 255 238 75 319 264 231 217 237 148 139 169 162 153 151 154 154 154 151 154 160 165 161 159 158 166 189 187 194 204 203 209 229 230 228 233
207 218 239 250 254 256 38 64 222 241 351 35 346 305 250 243 318 60 125 142 146 148 145 143 145 142 141 147 155 163 153 138 122 127 140 156 190 200 195 194 216 217 228 244
250 240 236 249 250 242 64 125 290 6 13 351 335 303 268 254 97 105 126 141 149 148 143 139 136 130 131 143 152 148 130 111 108 124 140 150 168 219 158 165 192 212 226 227
255 291 285 275 309 40 41 19 17 354 337 337 321 304 271 222 185 154 147 147 151 149 141 138 135 132 132 140 143 137 117 119 133 145 144 151 154 156 188 186 190 207 221 246
216 282 266 259 246 277 293 337 345 339 326 323 314 302 273 233 186 165 153 153 155 151 148 146 139 139 135 132 124 117 112 120 137 146 144 158 178 195 177 242 235 248 261 276
283 257 254 254 262 265 238 301 325 327 325 319 312 289 258 211 185 172 162 158 157 158 158 152 146 146 138 126 121 118 115 127 142 157 166 183 189 151 196 252 345 305 7 358
246 253 263 276 288 283 288 311 308 304 314 318 309 288 260 218 195 182 177 170 171 175 169 168 160 148 139 138 137 129 123 134 185 207 214 222 199 156 230 204 95 64 80 99